This demonstration page uses our WeatherBlox Daily Observations layout. Learn more.

Hourly Observations for June 10, 2020

Temp ( °F °C ) Dew Point ( °F °C ) Humidity (%) Winds ( mph kmh ) Pressure ( in mb ) Visibility ( mi km ) Precip ( " mm )
12:43 am 00:43 Cloudy 60 15.6 50 10 70 70 N 40 65 29.55 1001 10 16.0934 0 0
12:54 am 00:54 Cloudy 60 15.6 51 10.6 72 72 N 37 59 29.53 1000 10 16.0934 0 0
1:54 am 01:54 Cloudy 59 15 51 10.6 75 75 N 31 50 29.53 1000 10 16.0934 0.001 0.001
2:32 am 02:32 Cloudy with Nearby Thunderstorms 59 15 51 10.6 75 75 N 26 43 29.59 1002 10 16.0934 0 0
2:49 am 02:49 Cloudy with Thunderstorms 57 14 52 11 82 82 N 30 48 29.59 1002 7 11.26538 0.001 0.001
2:54 am 02:54 Windy with Storms Likely 58 14.4 51 10.6 78 78 NNW 35 56 29.58 1002 8 12.87472 0.001 0.001
3:07 am 03:07 Cloudy 59 15 50 10 72 72 N 30 48 29.62 1003 10 16.0934 0.001 0.001
3:54 am 03:54 Cloudy 59 15 48 8.9 67 67 N 21 33 29.64 1004 10 16.0934 0.001 0.001
4:54 am 04:54 Cloudy with Light Rain 59 15 51 10.6 75 75 N 20 31 29.68 1005 10 16.0934 0.001 0.001
5:54 am 05:54 Cloudy with Light Rain 60 15.6 51 10.6 72 72 NNW 15 24 29.75 1007 10 16.0934 0.001 0.001
6:54 am 06:54 Cloudy 60 15.6 52 11.1 75 75 NW 16 26 29.78 1009 10 16.0934 0.001 0.001
7:54 am 07:54 Cloudy 59 15 50 10 72 72 NW 21 33 29.82 1010 10 16.0934 0.001 0.001
8:54 am 08:54 Mostly Cloudy 60 15.6 49 9.4 67 67 NW 24 39 29.84 1011 10 16.0934 0 0
9:54 am 09:54 Sunny 66 18.9 50 10 56 56 NNW 22 35 29.85 1011 10 16.0934 0 0
10:54 am 10:54 Sunny 69 20.6 49 9.4 49 49 NNW 24 39 29.88 1012 10 16.0934 0 0
11:54 am 11:54 Sunny 73 22.8 48 8.9 41 41 NNW 24 39 29.9 1013 10 16.0934 0 0
12:54 pm 12:54 Mostly Sunny 74 23.3 46 7.8 37 37 NW 28 44 29.92 1013 10 16.0934 0 0
1:54 pm 13:54 Sunny 77 25 45 7.2 32 32 NNW 22 35 29.93 1014 10 16.0934 0 0
2:54 pm 14:54 Mostly Sunny 77 25 44 6.7 31 31 NNW 25 41 29.95 1014 10 16.0934 0 0
3:54 pm 15:54 Mostly Sunny 78 25.6 44 6.7 30 30 NNW 22 35 29.96 1015 10 16.0934 0 0
4:54 pm 16:54 Mostly Sunny 78 25.6 43 6.1 29 29 WNW 24 39 29.97 1015 10 16.0934 0 0
5:54 pm 17:54 Mostly Sunny 78 25.6 42 5.6 28 28 NW 16 26 29.98 1015 10 16.0934 0 0
6:54 pm 18:54 Sunny 77 25 40 4.4 26 26 NW 20 31 30 1016 10 16.0934 0 0
7:54 pm 19:54 Sunny 75 23.9 41 5 29 29 NW 13 20 30.02 1017 10 16.0934 0 0
8:54 pm 20:54 Sunny 71 21.7 43 6.1 36 36 NW 6 9 30.04 1017 10 16.0934 0 0
9:54 pm 21:54 Clear 67 19.4 44 6.7 44 44 W 5 7 30.05 1018 10 16.0934 0 0
10:54 pm 22:54 Clear 63 17.2 46 7.8 54 54 Calm 30.07 1018 10 16.0934 0 0
11:54 pm 23:54 Clear 60 15.6 46 7.8 60 60 Calm 30.07 1018 10 16.0934 0 0

Powered by AerisWeather